EHI
0 0 0 0 0 0 0 0 0 0 0 0 0 0 0 0 0 0 0 0 0 0 0 0 0 0 0 0 0 0 0 0 0 0 0 0 0 0 0 0 0 0 0
0 0 0 0 0 0 0 0 0 0 0 0 0 0 0 0 0 0 0 0 0 0 0 0 0 0 0 0 0 0 0 0 0 0 0 0 0 0 0 0 0 0 0
0 0 0 0 0 0 0 0 0 0 0 0 0 0 0 0 0 0 0 0 0 0 0 0 0 1 1 0 0 0 0 0 0 0 0 0 0 0 0 0 0 0 0
0 0 0 0 0 0 0 0 0 0 0 0 0 0 0 0 0 0 0 0 0 0 0 0 0 1 2 1 0 0 0 0 0 0 0 0 0 0 0 0 0 0 0
0 0 0 0 0 0 0 0 0 0 0 0 0 0 0 0 0 0 0 0 0 0 0 0 0 1 2 2 1 0 0 0 0 0 0 0 0 0 0 0 0 0 0
0 0 0 0 0 0 0 0 0 0 0 0 0 0 0 0 0 0 0 0 0 0 0 0 0 0 1 1 1 0 0 0 0 0 0 0 0 0 0 0 0 0 0
0 0 0 0 0 0 0 0 0 0 0 0 0 0 0 0 0 0 0 0 0 0 0 0 0 0 0 0 0 0 0 0 0 0 0 0 0 0 0 0 0 0 0
0 0 0 0 0 0 0 0 0 0 0 0 0 0 0 0 0 0 0 0 0 0 0 0 0 0 0 0 0 0 0 0 0 0 0 0 0 0 0 0 0 0 0
0 0 0 0 0 0 0 0 0 0 0 0 0 0 0 0 0 0 0 0 0 0 0 0 0 0 0 0 0 0 0 0 0 0 0 0 0 0 0 0 0 0 0
0 0 0 0 0 0 0 0 0 0 0 0 0 0 0 0 0 0 0 0 0 0 0 0 0 0 0 0 0 0 0 0 0 0 0 0 0 0 0 0 0 0 0
0 0 0 0 0 0 0 0 0 0 0 0 0 0 0 0 0 0 0 0 0 0 0 0 0 0 0 0 0 0 0 0 0 0 0 0 0 0 0 0 0 0 0
0 0 0 0 0 0 0 0 0 0 0 0 0 0 0 0 0 0 0 0 0 0 0 0 0 0 0 0 0 0 0 0 0 0 0 0 0 0 0 0 0 0 0
0 0 0 0 0 0 0 0 0 0 0 0 0 0 0 0 0 0 0 0 0 0 0 0 0 0 0 0 0 0 0 0 0 0 0 0 0 0 0 0 0 0 0
0 0 0 0 0 0 0 0 0 0 0 0 0 0 0 0 0 0 0 0 0 0 0 0 0 0 0 0 0 0 0 0 0 0 0 0 0 0 0 0 0 0 0
0 0 0 0 0 0 0 0 0 0 0 0 0 0 0 0 0 0 0 0 0 0 0 0 0 0 0 0 0 0 0 0 0 0 0 0 0 0 0 0 0 0 0
0 0 0 0 0 0 0 0 0 0 0 0 0 0 0 0 0 0 0 0 0 0 0 0 0 0 0 0 0 0 0 0 0 0 0 0 0 0 0 0 0 0 0
0 0 0 0 0 0 0 0 0 0 0 0 0 0 0 0 0 0 0 0 0 0 0 0 0 0 0 0 0 0 0 0 0 0 0 0 0 0 0 0 0 0 0
0 0 0 0 0 0 0 0 0 0 0 0 0 0 0 0 0 0 0 0 0 0 0 0 0 0 0 0 0 0 0 0 0 0 0 0 0 0 0 0 0 0 0
0 0 0 0 0 0 0 0 0 0 0 0 0 0 0 0 0 0 0 0 0 0 0 0 0 0 0 0 0 0 0 0 0 0 0 0 0 0 0 0 0 0 0
0 0 0 0 0 0 0 0 0 0 0 0 0 0 0 0 0 0 0 0 0 0 0 0 0 0 0 0 0 0 0 0 0 0 0 0 0 0 0 0 0 0 0
0 0 0 0 0 0 0 0 0 0 0 0 0 0 0 0 0 0 0 0 0 0 0 0 0 0 0 0 0 0 0 0 0 0 0 0 0 0 0 0 0 0 0
0 0 0 0 0 0 0 0 0 0 0 0 0 0 0 0 0 0 0 0 0 0 0 0 0 0 0 0 0 0 0 0 0 0 0 0 0 0 0 0 0 0 0
0 0 0 0 0 0 0 0 0 0 0 0 0 0 0 0 0 0 0 0 0 0 0 0 0 0 0 0 0 0 0 0 0 0 0 0 0 0 0 0 0 0 0
0 0 0 0 0 0 0 0 0 0 0 0 0 0 0 0 0 0 0 0 0 0 0 0 0 0 0 0 0 0 0 0 0 0 0 0 0 0 0 0 0 0 0
0 0 0 0 0 0 0 0 0 0 0 0 0 0 0 0 0 0 0 0 0 0 0 0 0 0 0 0 0 0 0 0 0 0 0 0 0 0 0 0 0 0 0
0 0 0 0 0 0 0 0 0 0 0 0 0 0 0 0 0 0 0 0 0 0 0 0 0 0 0 0 0 0 0 0 0 0 0 0 0 0 0 0 0 0 0
Wind_Speed
7 6 5 5 5 4 4 4 4 4 4 4 4 4 4 4 4 4 3 7 8 8 8 7 6 5 5 4 4 3 2 2 2 1 1 1 2 2 3 3 3 3 3
7 7 6 6 5 5 5 5 5 4 3 3 4 4 4 3 4 4 3 4 7 7 8 7 6 6 5 5 4 3 2 2 1 1 1 1 2 3 3 3 3 3 3
8 7 6 6 6 5 5 4 4 3 3 3 3 4 3 4 4 5 4 3 3 6 7 7 7 6 5 5 4 4 3 2 1 1 2 2 3 3 4 4 4 4 4
8 7 6 6 6 5 5 4 4 3 3 3 3 3 3 3 4 4 4 4 3 3 5 6 5 5 5 5 4 3 3 2 2 2 1 2 3 4 4 5 4 5 5
8 6 6 5 6 4 4 5 4 3 4 3 3 2 2 3 4 4 4 4 4 4 3 4 5 4 4 5 4 4 3 2 2 2 2 2 3 4 4 5 5 5 6
8 7 5 6 6 5 4 4 4 3 3 3 2 2 2 2 3 3 4 4 3 4 4 3 3 2 3 3 4 3 3 3 3 2 3 3 3 4 5 6 6 6 6
8 7 5 6 6 6 6 6 4 4 3 2 1 1 2 2 2 3 3 3 4 4 4 4 3 2 1 2 2 3 3 3 3 3 3 3 4 5 6 6 6 6 7
7 7 7 6 6 5 6 6 4 3 3 3 3 2 2 2 2 2 2 3 4 3 3 4 3 3 2 1 1 2 1 2 3 3 3 3 4 5 6 6 6 7 7
6 6 7 6 6 6 6 6 6 6 4 4 3 4 3 4 2 2 3 3 3 3 3 3 4 3 3 2 1 1 1 1 3 3 3 3 4 4 5 5 6 6 7
5 5 6 6 6 5 6 6 6 4 5 4 3 3 3 3 3 2 2 2 3 4 4 3 3 3 3 3 2 2 1 1 3 3 3 2 3 3 4 5 5 6 6
5 5 5 5 6 5 6 6 5 5 5 5 4 2 2 2 2 3 3 3 2 2 3 3 3 3 3 3 2 2 2 1 3 2 2 1 2 3 4 5 5 6 6
3 4 4 4 5 5 6 6 6 6 5 5 4 4 3 3 4 3 3 3 3 2 2 2 3 3 3 3 3 3 2 1 1 1 1 1 2 4 4 5 5 6 6
3 4 4 4 4 4 5 5 6 6 6 7 6 5 5 5 3 3 3 3 2 1 2 2 2 3 3 3 3 4 2 2 1 0 0 2 3 4 5 5 6 6 6
3 4 5 5 5 5 5 5 5 6 6 7 7 7 5 4 4 4 4 4 3 2 2 3 1 3 3 3 4 4 2 3 2 2 2 3 3 3 4 4 5 6 6
3 3 4 5 5 5 5 4 4 6 6 7 7 7 6 5 4 4 4 4 5 5 5 4 3 3 3 3 4 2 2 3 3 3 3 3 2 3 3 4 5 6 6
3 3 4 4 4 5 5 5 4 5 6 6 5 6 5 4 4 4 4 4 5 4 4 3 2 3 3 3 5 3 2 4 3 3 3 2 2 2 3 4 4 5 6
3 3 4 4 4 4 4 4 5 5 6 6 5 6 6 5 4 4 4 4 4 4 3 2 1 3 4 4 4 2 2 2 1 3 3 3 2 2 3 4 4 5 5
2 3 3 4 4 4 4 4 4 4 5 6 6 6 6 4 5 4 4 5 4 3 4 4 2 2 3 4 4 3 2 2 1 2 3 3 2 2 3 4 5 5 5
3 2 2 3 4 4 4 4 4 4 5 5 5 6 6 5 5 4 5 5 4 3 3 4 3 2 2 3 4 3 2 1 1 1 2 2 2 2 3 3 5 5 6
3 3 2 3 3 3 3 3 3 4 4 4 4 4 4 5 6 6 5 5 5 5 5 5 4 3 3 3 3 3 2 1 0 1 1 1 2 3 3 3 4 5 5
3 3 3 3 3 3 3 3 3 3 3 3 3 3 3 4 5 5 4 5 6 5 5 5 4 3 3 4 4 3 2 1 0 0 1 1 2 2 2 3 3 4 4
4 3 4 3 4 3 4 4 3 3 3 3 3 2 2 2 3 4 6 7 7 7 7 5 4 5 5 4 4 4 4 3 1 1 1 1 1 1 1 1 2 3 3
4 3 3 3 4 4 4 4 4 3 3 3 3 2 1 1 3 3 5 6 5 6 7 6 6 5 6 6 6 5 4 3 2 2 2 0 1 0 1 1 1 2 3
3 3 4 3 3 4 4 4 3 2 2 3 3 3 3 3 3 5 5 5 4 3 4 4 5 5 5 6 6 5 5 4 3 1 2 2 0 0 1 1 1 1 2
3 3 4 4 3 4 3 3 3 2 1 2 2 3 4 4 6 8 7 6 5 3 4 6 6 6 8 10 9 6 5 4 2 1 1 2 1 0 1 1 2 1 1
3 3 4 3 3 3 4 3 3 2 2 1 1 1 3 4 7 8 6 7 6 3 4 5 6 6 5 7 8 5 6 5 3 2 2 2 2 2 1 1 2 2 2
Wind_Direction
174 173 174 176 178 176 178 184 191 200 212 217 216 210 209 200 201 201 202 199 200 202 203 206 211 216 221 222 224 223 233 247 242 254 260 292 300 306 315 321 325 325 321
175 176 177 180 183 183 184 189 194 200 211 212 215 214 211 199 198 198 201 200 202 204 205 212 219 225 226 227 223 227 229 232 254 255 259 281 302 303 306 305 304 309 308
177 178 179 183 187 185 184 186 194 197 209 212 214 214 204 199 195 197 199 201 201 208 212 216 221 225 233 233 229 226 215 219 229 255 264 277 290 298 295 293 292 293 297
180 180 182 187 187 183 184 189 190 194 208 208 212 215 205 199 202 201 200 198 195 200 210 212 214 222 230 228 225 218 214 214 228 241 265 290 302 307 304 296 293 293 294
179 181 185 187 185 188 193 200 196 190 201 206 211 218 212 206 209 206 205 202 198 195 197 198 196 205 215 215 216 217 215 220 232 236 259 286 299 309 314 307 302 295 291
177 180 185 187 187 190 198 204 203 201 200 196 205 227 243 226 209 207 207 198 197 195 189 183 181 197 197 202 216 223 214 219 237 250 270 282 288 297 300 304 306 301 297
180 182 186 188 191 196 201 199 200 202 206 174 151 269 289 269 237 222 206 192 194 191 176 175 172 168 183 191 206 212 216 228 243 257 268 274 276 288 296 302 302 300 297
190 187 187 191 194 196 200 200 194 197 207 186 170 181 252 276 266 242 215 198 199 188 181 174 163 162 159 152 162 167 204 239 262 264 260 265 281 290 296 300 305 304 301
202 198 192 192 195 196 203 206 201 199 209 211 193 183 194 227 237 243 228 207 193 190 189 175 168 167 161 151 148 157 169 246 268 268 270 267 284 290 304 309 311 314 312
206 205 199 195 198 202 207 210 207 209 200 212 217 218 209 180 192 230 250 223 200 198 193 183 172 169 159 155 153 147 144 252 259 262 276 279 302 317 330 329 328 327 325
216 205 202 199 201 206 210 209 209 212 209 211 210 209 221 220 197 194 221 221 221 214 198 184 172 168 157 152 152 147 146 232 247 257 272 306 343 345 348 347 343 341 340
225 214 208 207 210 211 210 212 211 211 217 217 217 208 202 206 209 199 210 209 211 212 201 186 177 170 157 154 156 149 159 204 245 263 293 27 23 10 357 350 348 347 348
242 224 216 215 218 224 221 216 215 215 215 218 221 224 220 221 209 198 202 202 197 194 185 192 188 170 160 156 162 157 161 155 166 221 102 59 36 19 3 353 350 347 347
231 230 220 219 225 229 231 227 226 223 221 225 228 223 226 223 212 202 195 187 195 201 198 199 180 177 164 162 169 153 147 143 133 119 97 73 45 20 6 355 351 348 346
240 237 230 224 224 226 231 231 238 234 227 227 227 225 224 222 212 208 196 191 189 204 210 188 183 179 165 157 157 144 145 150 131 125 110 88 60 25 10 360 356 353 351
247 241 242 233 230 227 224 226 237 240 237 236 234 227 229 226 216 212 203 202 200 197 200 170 173 165 162 152 153 141 152 139 127 131 126 105 70 29 18 7 3 357 351
253 239 236 232 226 224 222 228 240 242 241 239 234 228 231 225 217 213 202 198 194 175 178 152 134 147 150 153 140 131 124 112 125 138 145 133 105 56 34 20 9 2 352
269 246 234 234 234 229 224 224 238 244 240 240 235 228 230 222 216 206 197 198 189 168 163 168 152 149 151 152 139 134 118 108 111 148 141 125 106 72 45 27 20 13 7
308 291 250 239 238 235 235 234 231 237 241 246 243 232 225 212 217 207 196 190 175 156 148 151 150 139 129 128 123 112 111 94 99 140 132 130 109 75 53 38 26 20 16
313 309 288 267 252 243 237 239 240 239 244 250 248 237 222 214 212 199 188 180 159 150 140 136 137 134 125 122 128 140 141 134 94 49 105 102 94 65 54 46 30 23 25
320 312 300 290 277 254 242 240 238 238 238 249 257 247 227 216 208 191 177 166 157 152 142 140 142 137 141 148 163 154 157 135 66 80 63 22 37 35 20 22 27 31 37
322 315 304 294 284 273 265 262 256 236 233 231 242 256 234 192 177 171 164 157 157 156 158 151 153 163 168 160 145 151 147 145 194 199 121 2 42 40 354 344 12 37 51
322 314 307 302 294 280 273 265 264 249 236 230 220 216 222 172 157 145 133 124 133 151 159 158 162 172 167 168 157 155 162 155 175 168 119 141 23 351 325 321 11 70 71
320 313 314 305 300 295 283 264 262 247 236 234 222 205 195 178 164 147 132 117 108 115 143 146 156 162 160 158 161 157 148 117 87 65 112 146 189 290 336 344 339 101 99
327 322 320 321 311 306 300 276 263 220 221 236 223 201 181 174 168 153 141 133 119 99 99 120 129 139 147 150 145 129 132 130 131 167 127 137 155 86 7 347 337 357 108
325 327 329 323 311 303 301 290 272 208 204 218 210 194 182 178 171 162 150 146 146 142 119 104 96 97 109 138 149 150 153 146 137 175 182 137 139 126 109 334 350 3 19